Location: Berkeley
(37.8716°N, 122.2727°W)
Time: 20:31:49
(UTC-07:00)

Envisat - Pass Details

Date: 10 May 2026
Orbit: 761 x 763 km, 98.4° (Epoch: 9 June)

Event Time Altitude Azimuth Distance (km) Brightness Sun altitude
Rises 03:27:00 0° 17° (NNE) 3,230 7.4 -25.3°
Reaches altitude 10° 03:29:21 10° 21° (NNE) 2,300 6.4 -25.0°
Maximum altitude 03:34:21 59° 101° (E) 875 3.3 -24.4°
Enters shadow 03:35:39 45° 154° (SSE) 1,036 3.4 -24.2°
